Volver al catálogo

STARLINK-30587

ActivoComunicacionesVLEO
NORAD 58064·PAYLOAD·🇺🇸 United States

Lanzado Oct 13, 2023 desde Cape Canaveral Space Force Station

Loading…

Próximos Pases (próximas 24 horas)

TLE

ActualizadoSource: CelesTrak SupGP

Época: Sep 15, 2026, 02:41 UTC

1 58064C 23158P   26258.11229167 -.00021225  00000+0 -76864-3 0  2589
2 58064  43.0046  37.0249 0001777 267.2802  62.0835 15.27594037    14

Sigue STARLINK-30587 en tiempo real con AllMySat

Download on the App Store